Total_Precipitation_Accumulation
0.02 0.04 0.09 0.11 0.13 0.15 0.19 0.23 0.29 0.25 0.23 0.30 0.40 0.59 0.84 0.98 1.17 1.32 1.31 1.33 1.43 1.53 1.76 1.97 2.15 2.36 2.62 2.84 3.00 3.24 3.50 3.90 4.18 4.55 4.85 5.06 5.26 5.48 5.55 5.45 5.35 5.32 5.32 5.44
0.05 0.06 0.07 0.09 0.09 0.10 0.13 0.19 0.26 0.28 0.27 0.29 0.43 0.62 0.85 0.96 1.11 1.30 1.37 1.46 1.48 1.58 1.76 2.10 2.43 2.87 3.09 3.22 3.30 3.52 3.87 4.20 4.39 4.77 5.29 5.76 5.96 6.07 6.07 6.03 6.12 6.16 6.16 6.32
0.07 0.07 0.07 0.06 0.07 0.07 0.10 0.15 0.18 0.27 0.33 0.38 0.55 0.93 1.15 1.14 1.27 1.41 1.42 1.58 1.60 1.66 1.95 2.23 2.62 2.94 3.07 3.20 3.33 3.50 3.99 4.46 4.93 5.39 5.96 6.44 6.75 6.76 6.59 6.28 6.34 6.44 6.28 6.39
0.07 0.06 0.05 0.06 0.06 0.07 0.10 0.12 0.15 0.21 0.35 0.50 0.55 1.14 1.53 1.60 1.63 1.55 1.54 1.63 1.60 1.64 1.90 2.25 2.51 2.80 2.94 3.07 3.31 3.54 3.98 4.69 5.21 5.54 6.17 6.81 7.06 7.24 7.29 7.05 6.72 6.51 6.25 6.13
0.06 0.06 0.07 0.08 0.08 0.08 0.10 0.10 0.16 0.19 0.27 0.45 0.49 0.95 1.70 1.84 1.95 1.77 1.69 1.70 1.54 1.50 1.71 2.07 2.25 2.52 2.85 2.98 3.09 3.33 3.90 4.56 5.30 5.92 6.41 7.00 7.49 7.70 7.60 7.15 6.69 6.15 5.79 5.34
0.06 0.06 0.06 0.06 0.06 0.06 0.10 0.14 0.23 0.28 0.39 0.66 0.62 0.93 1.80 2.11 2.25 2.28 1.95 1.73 1.56 1.46 1.55 1.73 1.95 2.21 2.55 2.66 2.90 3.20 3.65 4.38 5.11 5.70 6.25 6.74 7.15 7.26 6.93 6.39 5.85 5.50 5.10 4.55
0.12 0.09 0.07 0.06 0.08 0.08 0.12 0.27 0.58 0.79 0.89 0.89 0.69 1.01 1.81 2.01 1.85 1.87 1.92 1.95 1.72 1.43 1.44 1.67 1.84 2.13 2.34 2.44 2.71 3.07 3.60 4.26 4.67 5.14 5.66 5.99 6.19 6.32 6.28 5.94 5.45 5.07 4.59 4.11
0.23 0.21 0.10 0.06 0.09 0.13 0.13 0.27 0.72 1.01 1.03 1.03 1.04 1.50 2.12 1.96 1.60 1.56 1.68 1.80 1.62 1.52 1.57 1.81 1.96 2.17 2.38 2.45 2.62 2.95 3.39 3.84 4.07 4.28 4.71 5.06 5.18 5.22 5.08 4.85 4.45 4.14 3.81 3.48
0.28 0.28 0.12 0.07 0.08 0.10 0.18 0.24 0.37 0.55 0.65 1.01 1.49 2.02 2.58 2.39 1.78 1.54 1.59 1.60 1.58 1.60 1.64 1.84 2.01 2.14 2.31 2.37 2.53 2.68 2.95 3.16 3.38 3.56 3.78 3.97 3.98 3.89 3.75 3.54 3.27 3.08 2.88 2.59
0.28 0.28 0.20 0.12 0.12 0.14 0.19 0.28 0.38 0.64 0.98 1.36 1.68 2.37 3.18 2.98 2.29 1.84 1.74 1.69 1.63 1.61 1.66 1.82 1.91 1.99 2.06 2.02 2.12 2.24 2.46 2.62 2.81 2.91 2.93 2.86 2.86 2.79 2.62 2.42 2.32 2.18 2.00 1.90
0.37 0.40 0.28 0.21 0.22 0.25 0.24 0.31 0.46 0.62 0.73 1.30 1.91 2.77 3.00 3.03 2.71 2.31 1.89 1.66 1.59 1.56 1.57 1.63 1.69 1.73 1.74 1.69 1.70 1.80 1.98 2.21 2.34 2.36 2.40 2.34 2.25 2.08 1.96 1.82 1.75 1.68 1.61 1.60
0.37 0.49 0.47 0.32 0.27 0.22 0.26 0.36 0.52 0.83 0.85 1.02 1.65 2.81 2.84 3.07 2.93 2.58 2.20 1.88 1.74 1.66 1.55 1.50 1.49 1.51 1.52 1.51 1.50 1.58 1.66 1.78 1.84 1.92 1.92 1.90 1.84 1.76 1.67 1.58 1.51 1.53 1.53 1.52
0.36 0.59 0.86 0.87 0.73 0.40 0.31 0.32 0.41 0.54 0.78 1.14 1.72 2.80 2.88 2.84 2.76 2.69 2.48 2.14 1.91 1.78 1.60 1.59 1.55 1.50 1.52 1.63 1.62 1.52 1.55 1.57 1.60 1.65 1.63 1.62 1.71 1.71 1.64 1.62 1.63 1.60 1.54 1.52
0.29 0.59 1.02 1.38 1.31 0.76 0.53 0.40 0.42 0.58 0.99 1.18 1.52 2.22 2.51 2.56 2.66 2.84 2.80 2.33 1.88 1.76 1.66 1.74 1.81 1.75 1.64 1.65 1.77 1.66 1.54 1.50 1.58 1.60 1.55 1.47 1.48 1.57 1.62 1.58 1.54 1.49 1.43 1.44
0.37 0.66 0.60 0.57 0.60 0.60 0.56 0.52 0.54 0.64 0.73 1.11 1.53 2.00 2.41 2.55 2.53 2.57 2.43 2.23 1.87 1.73 1.81 1.82 1.78 1.78 1.68 1.64 1.75 1.71 1.56 1.49 1.71 1.71 1.67 1.57 1.48 1.51 1.55 1.50 1.44 1.38 1.31 1.21
0.39 0.65 0.61 0.58 0.48 0.55 0.61 0.63 0.70 0.80 0.86 1.09 1.61 2.29 2.56 2.63 2.57 2.56 2.45 2.29 2.19 2.08 1.99 1.96 1.91 1.92 1.89 1.78 1.81 1.86 1.73 1.64 1.74 1.82 1.91 1.90 1.79 1.76 1.69 1.53 1.42 1.41 1.40 1.31
0.42 0.68 0.91 0.91 0.57 0.80 1.23 0.96 0.92 1.07 1.13 1.37 1.99 2.33 2.24 2.33 2.48 2.61 2.64 2.51 2.41 2.37 2.24 2.22 2.18 2.11 2.10 2.07 2.02 1.99 1.87 1.77 1.79 1.88 1.94 1.90 1.85 1.81 1.76 1.53 1.39 1.43 1.43 1.39
0.42 0.72 0.97 1.06 1.16 1.86 1.70 0.99 0.97 1.19 1.39 1.58 1.84 1.95 1.96 1.98 2.12 2.20 2.26 2.35 2.39 2.29 2.22 2.27 2.37 2.29 2.25 2.14 2.08 1.99 1.87 1.88 1.93 1.96 1.93 1.85 1.70 1.67 1.60 1.51 1.48 1.45 1.41 1.38
0.29 0.63 1.05 1.23 1.58 1.82 1.61 1.03 1.07 1.52 2.07 1.74 1.69 1.59 1.48 1.45 1.68 2.10 2.15 2.17 2.33 2.37 2.30 2.29 2.28 2.22 2.19 2.13 2.08 1.99 1.91 1.92 1.91 1.89 1.80 1.69 1.57 1.57 1.47 1.44 1.38 1.33 1.28 1.27
0.34 0.52 1.02 1.30 1.82 2.20 2.02 1.09 0.88 1.43 2.63 2.00 1.73 1.59 1.47 1.60 2.05 2.20 2.00 1.98 1.97 2.04 2.10 2.02 1.87 1.77 1.93 2.06 2.08 1.99 1.90 1.87 1.83 1.62 1.42 1.32 1.36 1.43 1.32 1.23 1.18 1.15 1.16 1.15
0.87 0.95 1.17 1.43 1.93 2.19 1.34 0.82 1.00 2.16 2.71 2.07 1.71 1.56 1.52 1.79 2.01 1.75 1.57 1.64 1.64 1.64 1.60 1.53 1.48 1.56 1.70 1.79 1.82 1.83 1.75 1.72 1.59 1.43 1.33 1.30 1.23 1.21 1.19 1.18 1.18 1.11 1.07 1.11
1.11 1.28 1.37 1.56 2.10 2.26 1.11 0.91 1.49 1.86 1.56 1.50 1.42 1.34 1.32 1.31 1.24 1.25 1.27 1.28 1.24 1.25 1.23 1.18 1.28 1.40 1.49 1.46 1.46 1.55 1.56 1.50 1.39 1.35 1.30 1.34 1.24 1.06 1.10 1.25 1.21 1.18 1.21 1.21
1.14 1.28 1.41 1.61 1.95 1.66 1.05 0.98 1.08 1.14 1.16 1.10 1.08 1.01 0.96 0.95 0.85 0.92 0.97 0.97 0.97 0.97 1.01 1.04 1.07 1.18 1.32 1.35 1.38 1.44 1.40 1.33 1.31 1.37 1.35 1.27 1.16 1.20 1.19 1.23 1.23 1.17 1.16 1.08
1.16 0.96 1.13 1.32 1.39 1.18 0.99 0.93 0.87 0.81 0.81 0.76 0.80 0.90 0.86 0.85 0.87 0.89 0.86 0.83 0.82 0.85 0.89 0.98 1.02 1.05 1.15 1.18 1.20 1.29 1.23 1.23 1.35 1.45 1.41 1.27 1.14 1.09 1.10 1.13 1.12 1.04 0.98 0.95
1.11 1.05 1.18 1.32 1.30 1.22 1.14 0.90 0.80 0.73 0.66 0.62 0.67 0.78 0.85 0.84 0.86 0.84 0.79 0.80 0.85 0.89 0.93 0.97 1.04 1.05 1.00 0.99 1.03 1.02 1.04 1.17 1.38 1.35 1.22 1.10 0.95 0.89 0.91 0.89 0.86 0.86 0.79 0.75
0.87 1.04 1.22 1.29 1.13 1.20 1.21 0.94 0.78 0.76 0.72 0.69 0.68 0.78 0.90 0.92 0.95 0.91 0.85 0.84 0.87 0.90 0.89 0.98 0.96 0.91 0.92 0.97 1.00 0.94 0.90 1.01 1.23 1.22 1.02 0.87 0.78 0.71 0.63 0.62 0.64 0.61 0.58 0.56